TimeCST,TemperatureF,Dew PointF,Humidity,Sea Level PressureIn,VisibilityMPH,Wind Direction,Wind SpeedMPH,Gust SpeedMPH,PrecipitationIn,Events,Conditions,WindDirDegrees,DateUTC
12:53 AM,33.1,19.9,59,30.29,10.0,NNE,12.7,-,N/A,,Clear,20,2013-01-24 06:53:00
1:53 AM,32.0,19.9,61,30.32,10.0,North,12.7,19.6,N/A,,Clear,10,2013-01-24 07:53:00
2:53 AM,30.0,16.0,56,30.33,10.0,NNE,13.8,-,N/A,,Mostly Cloudy,20,2013-01-24 08:53:00
3:53 AM,28.9,14.0,54,30.34,10.0,NNE,12.7,-,N/A,,Overcast,20,2013-01-24 09:53:00
4:53 AM,28.0,10.0,47,30.37,10.0,NNE,16.1,-,N/A,,Overcast,30,2013-01-24 10:53:00
5:53 AM,26.1,8.1,47,30.40,10.0,NE,13.8,-,N/A,,Overcast,40,2013-01-24 11:53:00
6:53 AM,23.0,10.9,60,30.43,10.0,NE,11.5,-,N/A,,Clear,50,2013-01-24 12:53:00
7:53 AM,23.0,12.9,65,30.44,10.0,NE,9.2,-,N/A,,Clear,50,2013-01-24 13:53:00
8:53 AM,25.0,10.9,55,30.46,10.0,East,11.5,-,N/A,,Clear,80,2013-01-24 14:53:00
9:53 AM,26.1,10.9,53,30.47,10.0,ESE,12.7,-,N/A,,Clear,110,2013-01-24 15:53:00
10:53 AM,27.0,10.9,51,30.48,10.0,East,9.2,-,N/A,,Mostly Cloudy,80,2013-01-24 16:53:00
11:53 AM,28.0,9.0,45,30.45,10.0,East,9.2,17.3,N/A,,Overcast,80,2013-01-24 17:53:00
12:53 PM,30.0,7.0,38,30.41,10.0,East,10.4,-,N/A,,Overcast,90,2013-01-24 18:53:00
1:53 PM,30.9,7.0,37,30.38,10.0,East,8.1,-,N/A,,Overcast,90,2013-01-24 19:53:00
2:53 PM,30.9,8.1,38,30.33,10.0,East,10.4,-,N/A,,Overcast,100,2013-01-24 20:53:00
3:53 PM,30.0,6.1,36,30.33,10.0,ESE,9.2,-,N/A,,Overcast,120,2013-01-24 21:53:00
4:53 PM,30.0,7.0,38,30.31,10.0,ESE,12.7,-,N/A,,Overcast,110,2013-01-24 22:53:00
5:53 PM,30.0,7.0,38,30.33,10.0,SE,10.4,-,N/A,,Overcast,130,2013-01-24 23:53:00
6:53 PM,28.9,8.1,41,30.32,10.0,ESE,12.7,-,N/A,,Overcast,110,2013-01-25 00:53:00
7:53 PM,28.0,8.1,43,30.31,10.0,SE,10.4,-,N/A,,Overcast,130,2013-01-25 01:53:00
8:53 PM,27.0,9.0,47,30.29,10.0,SE,10.4,18.4,N/A,,Overcast,130,2013-01-25 02:53:00
9:53 PM,27.0,10.9,51,30.28,10.0,ESE,8.1,-,N/A,,Overcast,110,2013-01-25 03:53:00
10:53 PM,27.0,14.0,58,30.25,10.0,SE,5.8,-,N/A,,Overcast,140,2013-01-25 04:53:00
11:53 PM,27.0,16.0,63,30.23,10.0,ESE,3.5,-,N/A,,Overcast,120,2013-01-25 05:53:00